Indianapolis, IN

8:20 PM EDT on September 20, 2019 (GMT -0400)
Indianapolis Terry

Weather History for KTYQ - May, 2019

Change the Weather History Date:

Friday, May 17, 2019

  Actual Average (KEYE) Record (KEYE)
Temperature  
Mean Temperature 68 °F -  
Max Temperature 76 °F 69 °F 84 °F (1998)
Min Temperature 60 °F 51 °F 42 °F (2002)
Cooling Degree Days 3    
Growing Degree Days 18 (Base 50)    
Moisture  
Dew Point 64 °F    
Average Humidity 87    
Maximum Humidity 100    
Minimum Humidity 66    
Precipitation  
Precipitation 0.00 in - - ()
Sea Level Pressure  
Sea Level Pressure 29.86 in    
Wind  
Wind Speed 7 mph ()    
Max Wind Speed 14 mph    
Max Gust Speed 21 mph    
Visibility 10.0 miles    
Events      
Averages and records for this station are not official NWS values.
T = Trace of Precipitation, MM = Missing Value Source: Averaged Metar Reports

Daily Weather History Graph

Daily Weather History Graph

Search for Another Location

Airport or City:

Astronomy

May. 17, 2019 Rise Set
Actual Time 6:28 AM EDT 8:55 PM EDT
Civil Twilight 5:57 AM EDT 9:26 PM EDT
Nautical Twilight 5:19 AM EDT 10:04 PM EDT
Astronomical Twilight 4:36 AM EDT 10:47 PM EDT
Moon 7:42 PM EDT (5/17) 5:59 AM EDT (5/17)
Length of Visible Light 15h 28m
Length of Day
14h 27m
Waxing Gibbous, 98% of the Moon is Illuminated
May 17
Waxing Gibbous
May 18
Full
May 26
Last Quarter
Jun 3
New
Jun 10
First Quarter

Hourly Weather History & Observations

Time (EDT) Temp. Dew Point Humidity Pressure Visibility Wind Dir Wind Speed Gust Speed Precip Events Conditions
12:15 AM 61.7 °F 61.7 °F 100% 29.75 in 10.0 mi South 12.7 mph - N/A   Clear
12:35 AM 61.5 °F 61.5 °F 100% 29.74 in 10.0 mi South 13.8 mph - N/A   Clear
12:55 AM 62.1 °F 62.1 °F 100% 29.76 in 10.0 mi SSW 13.8 mph 20.7 mph N/A   Clear
1:15 AM 62.8 °F 62.8 °F 100% 29.77 in 10.0 mi SSW 13.8 mph - N/A   Clear
1:35 AM 62.6 °F 62.6 °F 100% 29.77 in 10.0 mi South 10.4 mph 16.1 mph N/A   Clear
1:55 AM 61.9 °F 61.9 °F 100% 29.77 in 10.0 mi South 8.1 mph - N/A   Clear
2:15 AM 62.6 °F 62.6 °F 100% 29.77 in 10.0 mi SSW 10.4 mph - N/A   Clear
2:35 AM 62.8 °F 62.8 °F 100% 29.77 in 10.0 mi SSW 9.2 mph - N/A   Clear
2:55 AM 63.7 °F 63.7 °F 100% 29.77 in 10.0 mi SSW 10.4 mph - N/A   Clear
3:15 AM 64.0 °F 64.0 °F 100% 29.76 in 10.0 mi SSW 10.4 mph - N/A   Clear
3:35 AM 63.7 °F 63.7 °F 100% 29.77 in 10.0 mi SSW 6.9 mph - N/A   Scattered Clouds
3:55 AM 63.5 °F 63.5 °F 100% 29.78 in 10.0 mi SW 6.9 mph - N/A   Mostly Cloudy
4:15 AM 64.8 °F 64.8 °F 100% 29.79 in 10.0 mi WSW 8.1 mph - N/A   Scattered Clouds
4:35 AM 65.3 °F 65.3 °F 100% 29.79 in 10.0 mi West 5.8 mph - N/A   Clear
4:55 AM 65.5 °F 65.5 °F 100% 29.79 in 10.0 mi West 4.6 mph - N/A   Clear
5:15 AM 65.1 °F 65.1 °F 100% 29.80 in 10.0 mi West 3.5 mph - N/A   Scattered Clouds
5:35 AM 62.8 °F 62.8 °F 100% 29.80 in 10.0 mi Calm Calm - N/A   Clear
5:55 AM 60.8 °F 60.8 °F 100% 29.81 in 10.0 mi SSW 4.6 mph - N/A   Scattered Clouds
6:15 AM 62.6 °F 62.6 °F 100% 29.81 in 10.0 mi SW 6.9 mph - N/A   Mostly Cloudy
6:35 AM 63.5 °F 63.5 °F 100% 29.81 in 10.0 mi WSW 6.9 mph - N/A   Scattered Clouds
6:55 AM 64.2 °F 63.7 °F 98% 29.81 in 10.0 mi SW 5.8 mph - N/A   Scattered Clouds
7:15 AM 62.4 °F 62.4 °F 100% 29.82 in 10.0 mi WSW 4.6 mph - N/A   Scattered Clouds
7:35 AM 63.3 °F 63.3 °F 100% 29.84 in 10.0 mi West 4.6 mph - N/A   Clear
7:55 AM 64.4 °F 63.9 °F 98% 29.86 in 10.0 mi West 6.9 mph - N/A   Clear
8:15 AM 64.4 °F 63.7 °F 98% 29.85 in 10.0 mi WSW 3.5 mph - N/A   Clear
8:35 AM 64.8 °F 63.9 °F 97% 29.85 in 10.0 mi WSW 5.8 mph - N/A   Clear
8:55 AM 65.7 °F 64.0 °F 94% 29.85 in 10.0 mi SW 4.6 mph - N/A   Clear
9:15 AM 67.3 °F 64.6 °F 91% 29.85 in 10.0 mi WSW 5.8 mph - N/A   Clear
9:35 AM 69.4 °F 65.3 °F 87% 29.85 in 10.0 mi SW 9.2 mph - N/A   Clear
9:55 AM 68.9 °F 63.9 °F 84% 29.86 in 10.0 mi WSW 8.1 mph - N/A   Clear
10:15 AM 69.3 °F 64.6 °F 85% 29.87 in 10.0 mi WSW 9.2 mph - N/A   Clear
10:35 AM 69.8 °F 64.6 °F 83% 29.88 in 10.0 mi WSW 9.2 mph - N/A   Clear
10:55 AM 69.6 °F 64.2 °F 83% 29.88 in 10.0 mi WSW 8.1 mph - N/A   Clear
11:15 AM 69.8 °F 64.4 °F 83% 29.88 in 10.0 mi WSW 5.8 mph - N/A   Clear
11:35 AM 72.5 °F 64.8 °F 77% 29.89 in 10.0 mi West 9.2 mph - N/A   Clear
11:55 AM 73.6 °F 64.9 °F 74% 29.89 in 10.0 mi WNW 9.2 mph 16.1 mph N/A   Scattered Clouds
12:15 PM 73.6 °F 64.8 °F 74% 29.89 in 10.0 mi WNW 9.2 mph - N/A   Scattered Clouds
12:35 PM 73.2 °F 64.2 °F 73% 29.89 in 10.0 mi WNW 6.9 mph - N/A   Clear
12:55 PM 73.0 °F 63.9 °F 73% 29.91 in 10.0 mi West 10.4 mph - N/A   Clear
1:15 PM 72.7 °F 63.9 °F 74% 29.91 in 10.0 mi WNW 10.4 mph - N/A   Clear
1:35 PM 72.5 °F 64.8 °F 77% 29.91 in 10.0 mi West 8.1 mph 16.1 mph N/A   Scattered Clouds
1:55 PM 73.0 °F 63.9 °F 73% 29.91 in 10.0 mi WNW 8.1 mph - N/A   Scattered Clouds
2:15 PM 73.6 °F 63.3 °F 70% 29.91 in 10.0 mi NW 8.1 mph - N/A   Clear
2:35 PM 75.0 °F 63.9 °F 68% 29.91 in 10.0 mi NW 9.2 mph - N/A   Clear
2:55 PM 75.9 °F 64.9 °F 69% 29.91 in 10.0 mi NW 10.4 mph - N/A   Scattered Clouds
3:15 PM 74.8 °F 64.6 °F 70% 29.91 in 10.0 mi NNW 11.5 mph - N/A   Mostly Cloudy
3:35 PM 74.5 °F 63.9 °F 69% 29.91 in 10.0 mi NW 8.1 mph - N/A   Overcast
3:55 PM 74.8 °F 64.4 °F 70% 29.91 in 10.0 mi NNW 8.1 mph - N/A   Overcast
4:15 PM 74.7 °F 65.3 °F 73% 29.90 in 10.0 mi North 8.1 mph - N/A   Overcast
4:35 PM 75.7 °F 64.2 °F 67% 29.90 in 10.0 mi NNE 3.5 mph - N/A   Scattered Clouds
4:55 PM 75.7 °F 63.7 °F 66% 29.89 in 10.0 mi Calm Calm - N/A   Scattered Clouds
5:15 PM 76.8 °F 65.1 °F 67% 29.89 in 10.0 mi NNW 4.6 mph - N/A   Clear
5:35 PM 75.7 °F 64.4 °F 68% 29.89 in 10.0 mi Calm Calm - N/A   Clear
5:55 PM 75.7 °F 64.6 °F 68% 29.89 in 10.0 mi Calm Calm - N/A   Clear
6:15 PM 75.4 °F 65.7 °F 72% 29.88 in 10.0 mi Calm Calm - N/A   Clear
6:35 PM 76.1 °F 64.9 °F 68% 29.88 in 10.0 mi Calm Calm - N/A   Clear
6:55 PM 75.6 °F 65.3 °F 70% 29.88 in 10.0 mi Calm Calm - N/A   Clear
7:15 PM 75.7 °F 64.4 °F 68% 29.88 in 10.0 mi Calm Calm - N/A   Clear
7:35 PM 75.2 °F 66.4 °F 74% 29.88 in 10.0 mi Calm Calm - N/A   Mostly Cloudy
7:55 PM 73.4 °F 67.5 °F 82% 29.88 in 10.0 mi NNE 3.5 mph - N/A   Overcast
8:15 PM 74.3 °F 67.6 °F 80% 29.88 in 10.0 mi Calm Calm - N/A   Mostly Cloudy
8:35 PM 73.4 °F 68.0 °F 83% 29.89 in 10.0 mi East 4.6 mph - N/A   Scattered Clouds
8:55 PM 70.9 °F 68.0 °F 91% 29.89 in 10.0 mi Calm Calm - N/A   Clear
9:15 PM 68.9 °F 67.5 °F 95% 29.89 in 10.0 mi East 4.6 mph - N/A   Clear
9:35 PM 68.0 °F 67.1 °F 97% 29.89 in 10.0 mi East 4.6 mph - N/A   Clear
9:55 PM 68.2 °F 66.7 °F 95% 29.89 in 10.0 mi ENE 3.5 mph - N/A   Clear
10:15 PM 68.0 °F 66.2 °F 94% 29.89 in 10.0 mi ENE 3.5 mph - N/A   Clear
10:35 PM 67.1 °F 65.8 °F 96% 29.90 in 10.0 mi East 3.5 mph - N/A   Clear
10:55 PM 66.7 °F 64.8 °F 93% 29.90 in 10.0 mi East 3.5 mph - N/A   Clear
11:15 PM 66.4 °F 63.7 °F 91% 29.90 in 10.0 mi East 3.5 mph - N/A   Clear
11:35 PM 65.8 °F 63.1 °F 91% 29.91 in 10.0 mi Calm Calm - N/A   Clear
11:55 PM 65.5 °F 63.1 °F 92% 29.91 in 10.0 mi Calm Calm - N/A   Clear